EZY74Z EDDB-EGKK

Flight info

Callsign EZY74Z
Flight time N/A
Altitude 38000
Route SUKIP4K SUKIP Y206 BUREL P203 HLZ L980 SAS DCT SOGPO DCT GALSO Q63 ARREK Y4 TEBRA TEBRA2G
Aircraft A20N/M-SDE2E3FGHIRWXY/LB1

Departure

Time 2026-05-05 18:00
Airport Berlin Brandenburg Airport (EDDB)

Arrival

Time N/A
Airport London Gatwick Airport (EGKK)
Time Latitude Longitude Altitude Speed Heading
2026-05-05 17:34 52.36051 13.50829 155 ft 0 kts 70°
2026-05-05 17:42 52.36045 13.50806 155 ft 2 kts 72°
2026-05-05 17:43 52.36040 13.50780 155 ft 2 kts 71°
2026-05-05 17:43 52.36035 13.50753 154 ft 2 kts 72°
2026-05-05 17:43 52.36029 13.50727 154 ft 2 kts 74°
2026-05-05 17:43 52.36025 13.50701 154 ft 2 kts 81°
2026-05-05 17:44 52.36025 13.50673 154 ft 2 kts 131°
2026-05-05 17:44 52.36033 13.50664 154 ft 1 kts 157°
2026-05-05 17:46 52.36025 13.50670 154 ft 4 kts 157°
2026-05-05 17:46 52.35983 13.50695 154 ft 9 kts 163°
2026-05-05 17:47 52.35911 13.50737 155 ft 13 kts 159°
2026-05-05 17:47 52.35819 13.50768 154 ft 15 kts 208°
2026-05-05 17:47 52.35766 13.50590 154 ft 19 kts 249°
2026-05-05 17:47 52.35724 13.50416 157 ft 17 kts 249°
2026-05-05 17:48 52.35678 13.50221 156 ft 16 kts 248°
2026-05-05 17:48 52.35635 13.50039 155 ft 19 kts 249°
2026-05-05 17:48 52.35583 13.49819 155 ft 22 kts 250°
2026-05-05 17:48 52.35529 13.49590 156 ft 22 kts 248°
2026-05-05 17:49 52.35475 13.49364 159 ft 21 kts 248°
2026-05-05 17:49 52.35420 13.49128 159 ft 20 kts 250°
2026-05-05 17:49 52.35367 13.48908 158 ft 22 kts 249°
2026-05-05 17:49 52.35308 13.48660 157 ft 25 kts 249°
2026-05-05 17:50 52.35267 13.48502 154 ft 1 kts 232°
2026-05-05 17:50 52.35227 13.48462 155 ft 9 kts 199°
2026-05-05 17:50 52.35182 13.48500 158 ft 7 kts 146°
2026-05-05 17:50 52.35137 13.48539 159 ft 7 kts 155°
2026-05-05 17:51 52.35127 13.48549 159 ft 0 kts 147°
2026-05-05 17:58 52.35116 13.48563 159 ft 5 kts 137°
2026-05-05 17:58 52.35096 13.48696 159 ft 16 kts 97°
2026-05-05 17:58 52.35082 13.48887 159 ft 18 kts 89°
2026-05-05 17:59 52.35093 13.49133 159 ft 37 kts 76°
2026-05-05 17:59 52.35259 13.49840 156 ft 96 kts 69°
2026-05-05 17:59 52.35566 13.51137 174 ft 145 kts 69°
2026-05-05 17:59 52.35879 13.52761 667 ft 149 kts 86°
2026-05-05 18:00 52.35733 13.53871 1003 ft 155 kts 117°
2026-05-05 18:00 52.34508 13.55138 1804 ft 163 kts 169°
2026-05-05 18:00 52.33330 13.55223 2282 ft 178 kts 181°
2026-05-05 18:00 52.32050 13.54807 2602 ft 200 kts 201°
2026-05-05 18:01 52.30855 13.53514 3032 ft 213 kts 218°
2026-05-05 18:01 52.29629 13.51953 3375 ft 235 kts 217°
2026-05-05 18:01 52.28275 13.50242 3870 ft 257 kts 218°
2026-05-05 18:01 52.26931 13.48199 4452 ft 272 kts 233°
2026-05-05 18:02 52.26183 13.45369 4565 ft 269 kts 262°
2026-05-05 18:02 52.26112 13.42342 4679 ft 271 kts 271°
2026-05-05 18:02 52.26184 13.39210 4969 ft 274 kts 273°
2026-05-05 18:02 52.26258 13.36103 5873 ft 273 kts 272°
2026-05-05 18:03 52.26291 13.34059 6591 ft 272 kts 271°
2026-05-05 18:03 52.26322 13.30017 7905 ft 272 kts 270°
2026-05-05 18:03 52.26325 13.27964 8544 ft 273 kts 270°
2026-05-05 18:03 52.26312 13.24766 9452 ft 278 kts 266°
2026-05-05 18:04 52.25917 13.21461 10374 ft 282 kts 252°
2026-05-05 18:04 52.25550 13.18187 10766 ft 304 kts 265°